Big Rapids, MI

9:33 AM EDT on October 21, 2019 (GMT -0400)
Roben-Hood

Weather History for KRQB - August, 2019

Change the Weather History Date:

Thursday, August 29, 2019

  Actual Average Record
Temperature  
Mean Temperature 62 °F -  
Max Temperature 77 °F 78 °F 93 °F (1973)
Min Temperature 48 °F 54 °F 32 °F (1982)
Degree Days  
Heating Degree Days 2    
Growing Degree Days 12 (Base 50)    
Moisture  
Dew Point 56 °F    
Average Humidity 78    
Maximum Humidity 99    
Minimum Humidity 48    
Precipitation  
Precipitation 0.01 in - - ()
Sea Level Pressure  
Sea Level Pressure 29.87 in    
Wind  
Wind Speed 5 mph (SW)    
Max Wind Speed 17 mph    
Max Gust Speed 31 mph    
Visibility 9 miles    
Events Rain    
Averages and records for this station are not official NWS values.
T = Trace of Precipitation, MM = Missing Value Source: NWS Daily Summary

Daily Weather History Graph

Daily Weather History Graph

Search for Another Location

Airport or City:

Astronomy

Aug. 29, 2019 Rise Set
Actual Time 7:01 AM EDT 8:23 PM EDT
Civil Twilight 6:32 AM EDT 8:52 PM EDT
Nautical Twilight 5:56 AM EDT 9:28 PM EDT
Astronomical Twilight 5:17 AM EDT 10:06 PM EDT
Moon 5:42 AM EDT (8/29) 8:22 PM EDT (8/29)
Length of Visible Light 14h 20m
Length of Day
13h 21m
Waning Crescent, 1% of the Moon is Illuminated
Aug 29
Waning Crescent
Aug 30
New
Sep 5
First Quarter
Sep 14
Full
Sep 21
Last Quarter

Hourly Weather History & Observations

Time (EDT) Temp. Dew Point Humidity Pressure Visibility Wind Dir Wind Speed Gust Speed Precip Events Conditions
12:19 AM 59.4 °F 54.5 °F 84% 29.93 in 10.0 mi WSW 3.5 mph - N/A   Overcast
12:36 AM 59.5 °F 54.1 °F 82% 29.93 in 10.0 mi Calm Calm - N/A   Overcast
12:55 AM 59.9 °F 54.0 °F 81% 29.93 in 10.0 mi Calm Calm - N/A   Overcast
12:56 AM 59.7 °F 54.0 °F 81% 29.93 in 10.0 mi Calm Calm - N/A   Overcast
1:15 AM 59.5 °F 53.8 °F 81% 29.93 in 10.0 mi Calm Calm - N/A   Overcast
1:36 AM 59.0 °F 53.1 °F 81% 29.93 in 10.0 mi Calm Calm - N/A   Scattered Clouds
1:55 AM 56.1 °F 52.0 °F 86% 29.93 in 10.0 mi Calm Calm - N/A   Scattered Clouds
2:15 AM 55.9 °F 52.3 °F 88% 29.92 in 10.0 mi Calm Calm - N/A   Clear
2:16 AM 56.1 °F 52.5 °F 88% 29.92 in 10.0 mi Calm Calm - N/A   Clear
2:38 AM 55.2 °F 52.2 °F 89% 29.92 in 10.0 mi Calm Calm - N/A   Clear
2:55 AM 55.2 °F 51.6 °F 88% 29.92 in 10.0 mi Calm Calm - N/A   Clear
3:15 AM 53.8 °F 51.6 °F 92% 29.93 in 10.0 mi ESE 3.5 mph - N/A   Clear
3:35 AM 52.9 °F 51.4 °F 95% 29.93 in 10.0 mi East 4.6 mph - N/A   Clear
3:57 AM 52.7 °F 51.3 °F 95% 29.93 in 10.0 mi East 6.9 mph - N/A   Clear
4:15 AM 51.6 °F 50.5 °F 96% 29.93 in 10.0 mi Calm Calm - N/A   Clear
4:35 AM 50.9 °F 50.0 °F 97% 29.92 in 2.0 mi ESE 6.9 mph - N/A   Clear
4:36 AM 50.9 °F 50.0 °F 97% 29.92 in 1.8 mi ESE 6.9 mph - N/A   Mist
4:58 AM 51.3 °F 50.4 °F 97% 29.93 in 5.0 mi East 9.2 mph - N/A   Clear
5:15 AM 50.5 °F 49.8 °F 97% 29.93 in 1.5 mi East 8.1 mph - N/A   Mist
5:35 AM 50.2 °F 49.3 °F 97% 29.93 in 0.8 mi ESE 4.6 mph - N/A   Mist
5:59 AM 50.4 °F 49.6 °F 97% 29.93 in - SSE 3.5 mph - N/A   Unknown
6:16 AM 50.4 °F 49.6 °F 97% 29.93 in 4.0 mi South 4.6 mph - N/A   Clear
6:35 AM 50.0 °F 49.5 °F 98% 29.94 in 3.0 mi SSW 5.8 mph - N/A   Clear
6:36 AM 50.2 °F 49.5 °F 97% 29.94 in 4.0 mi SSW 5.8 mph - N/A   Clear
6:55 AM 49.1 °F 48.6 °F 98% 29.94 in 10.0 mi South 5.8 mph - N/A   Clear
7:17 AM 49.1 °F 48.6 °F 98% 29.94 in 7.0 mi South 3.5 mph - N/A   Clear
7:35 AM 48.9 °F 48.4 °F 98% 29.94 in 10.0 mi Calm Calm - N/A   Clear
7:36 AM 48.9 °F 48.4 °F 98% 29.94 in 10.0 mi South 3.5 mph - N/A   Clear
7:55 AM 50.2 °F 49.8 °F 99% 29.94 in 10.0 mi Calm Calm - N/A   Clear
7:56 AM 50.4 °F 50.0 °F 99% 29.94 in 10.0 mi Calm Calm - N/A   Clear
8:18 AM 52.0 °F 51.4 °F 98% 29.94 in 10.0 mi Calm Calm - N/A   Clear
8:35 AM 54.0 °F 53.2 °F 97% 29.94 in 10.0 mi ESE 4.6 mph - N/A   Clear
8:55 AM 57.7 °F 57.0 °F 97% 29.94 in 10.0 mi SE 3.5 mph - N/A   Clear
9:15 AM 61.5 °F 58.5 °F 90% 29.93 in 10.0 mi Calm Calm - N/A   Clear
9:20 AM 62.2 °F 58.1 °F 86% 29.93 in 10.0 mi Calm Calm - N/A   Clear
9:37 AM 64.4 °F 57.6 °F 78% 29.92 in 10.0 mi SSW 4.6 mph - N/A   Clear
9:55 AM 66.2 °F 57.2 °F 73% 29.92 in 10.0 mi WSW 11.5 mph - N/A   Clear
9:56 AM 66.2 °F 57.2 °F 73% 29.92 in 10.0 mi SW 11.5 mph - N/A   Clear
10:15 AM 66.2 °F 56.8 °F 72% 29.92 in 10.0 mi SW 12.7 mph 17.3 mph N/A   Clear
10:16 AM 66.4 °F 57.0 °F 72% 29.92 in 10.0 mi SW 12.7 mph 17.3 mph N/A   Clear
10:38 AM 68.0 °F 55.8 °F 65% 29.91 in 10.0 mi WSW 11.5 mph 20.7 mph N/A   Clear
10:55 AM 68.9 °F 54.9 °F 61% 29.90 in 10.0 mi WSW 13.8 mph 19.6 mph N/A   Clear
10:56 AM 68.9 °F 54.9 °F 61% 29.90 in 10.0 mi WSW 12.7 mph 19.6 mph N/A   Clear
11:15 AM 69.4 °F 53.1 °F 56% 29.89 in 10.0 mi SW 12.7 mph 20.7 mph N/A   Clear
11:16 AM 69.4 °F 53.1 °F 56% 29.89 in 10.0 mi WSW 10.4 mph 20.7 mph N/A   Clear
11:39 AM 70.0 °F 53.4 °F 56% 29.89 in 10.0 mi WSW 13.8 mph 23.0 mph N/A   Clear
11:56 AM 71.1 °F 54.9 °F 56% 29.90 in 10.0 mi WSW 17.3 mph 24.2 mph N/A   Clear
12:15 PM 71.4 °F 54.9 °F 56% 29.90 in 10.0 mi WSW 17.3 mph 24.2 mph N/A   Scattered Clouds
12:16 PM 71.4 °F 54.9 °F 56% 29.90 in 10.0 mi WSW 16.1 mph 24.2 mph N/A   Scattered Clouds
12:35 PM 72.5 °F 54.0 °F 52% 29.90 in 10.0 mi WSW 11.5 mph 20.7 mph N/A   Scattered Clouds
12:39 PM 72.9 °F 54.3 °F 52% 29.89 in 10.0 mi WSW 15.0 mph 21.9 mph N/A   Scattered Clouds
12:57 PM 73.2 °F 54.5 °F 52% 29.88 in 10.0 mi WSW 15.0 mph 23.0 mph N/A   Scattered Clouds
1:15 PM 73.9 °F 54.9 °F 51% 29.88 in 10.0 mi SW 13.8 mph 20.7 mph N/A   Scattered Clouds
1:16 PM 73.9 °F 54.9 °F 51% 29.88 in 10.0 mi WSW 13.8 mph 20.7 mph N/A   Scattered Clouds
1:35 PM 73.6 °F 55.0 °F 52% 29.87 in 10.0 mi SW 12.7 mph 24.2 mph N/A   Scattered Clouds
1:58 PM 73.8 °F 54.3 °F 51% 29.84 in 10.0 mi SW 12.7 mph 20.7 mph N/A   Clear
2:15 PM 74.3 °F 53.4 °F 48% 29.84 in 10.0 mi SW 17.3 mph 27.6 mph N/A   Scattered Clouds
2:16 PM 74.1 °F 53.2 °F 48% 29.84 in 10.0 mi SSW 17.3 mph 27.6 mph N/A   Scattered Clouds
2:35 PM 75.2 °F 55.2 °F 50% 29.83 in 10.0 mi SSW 13.8 mph 24.2 mph N/A   Mostly Cloudy
2:36 PM 75.4 °F 55.0 °F 49% 29.83 in 10.0 mi SSW 10.4 mph 24.2 mph N/A   Mostly Cloudy
2:59 PM 76.3 °F 55.2 °F 48% 29.83 in 10.0 mi SSW 12.7 mph 24.2 mph N/A   Scattered Clouds
3:16 PM 76.5 °F 55.2 °F 48% 29.81 in 10.0 mi SSW 16.1 mph 27.6 mph N/A   Scattered Clouds
3:35 PM 76.6 °F 55.6 °F 48% 29.80 in 10.0 mi SW 17.3 mph 27.6 mph N/A   Mostly Cloudy
3:36 PM 76.6 °F 55.6 °F 48% 29.80 in 10.0 mi SW 13.8 mph 27.6 mph N/A   Mostly Cloudy
3:55 PM 77.2 °F 56.1 °F 48% 29.78 in 10.0 mi SW 11.5 mph 25.3 mph N/A   Overcast
3:59 PM 77.5 °F 56.7 °F 48% 29.78 in 10.0 mi SSW 16.1 mph 31.1 mph N/A   Mostly Cloudy
4:17 PM 75.7 °F 56.3 °F 51% 29.77 in 10.0 mi SSW 13.8 mph 28.8 mph N/A   Mostly Cloudy
4:36 PM 74.5 °F 56.5 °F 53% 29.75 in 10.0 mi SSW 9.2 mph 26.5 mph N/A   Mostly Cloudy
4:55 PM 73.9 °F 56.8 °F 55% 29.74 in 10.0 mi South 10.4 mph 18.4 mph N/A   Mostly Cloudy
5:19 PM 73.8 °F 58.1 °F 58% 29.74 in 10.0 mi SSW 10.4 mph 18.4 mph N/A   Overcast
5:35 PM 74.3 °F 58.5 °F 58% 29.76 in 10.0 mi SW 13.8 mph 25.3 mph N/A   Overcast
5:55 PM 72.3 °F 60.8 °F 67% 29.77 in 10.0 mi WSW 8.1 mph - N/A Rain Light Rain
5:56 PM 72.1 °F 61.0 °F 68% 29.77 in 10.0 mi WSW 6.9 mph - N/A Rain Light Rain
6:15 PM 69.3 °F 62.8 °F 80% 29.76 in 7.0 mi WSW 5.8 mph 17.3 mph N/A Rain Light Rain
6:20 PM 68.5 °F 63.3 °F 83% 29.76 in 10.0 mi WSW 3.5 mph - N/A Rain Light Rain
6:37 PM 68.4 °F 64.6 °F 88% 29.75 in 10.0 mi West 6.9 mph - 0.01 in Rain Light Rain
6:55 PM 69.1 °F 65.3 °F 88% 29.77 in 10.0 mi WSW 3.5 mph - 0.01 in   Mostly Cloudy
6:56 PM 69.1 °F 65.3 °F 88% 29.77 in 10.0 mi WSW 5.8 mph - 0.01 in   Mostly Cloudy
7:15 PM 67.3 °F 62.6 °F 85% 29.76 in 10.0 mi WSW 11.5 mph 24.2 mph N/A   Mostly Cloudy
7:16 PM 67.3 °F 62.6 °F 85% 29.76 in 10.0 mi WSW 10.4 mph 23.0 mph N/A   Overcast
7:38 PM 67.1 °F 63.0 °F 87% 29.76 in 10.0 mi SSW 3.5 mph - N/A   Overcast
7:55 PM 66.9 °F 63.0 °F 87% 29.78 in 10.0 mi SE 4.6 mph - N/A   Mostly Cloudy
8:15 PM 66.4 °F 62.6 °F 88% 29.79 in 10.0 mi WNW 9.2 mph - N/A   Scattered Clouds
8:39 PM 65.3 °F 62.1 °F 89% 29.78 in 10.0 mi West 3.5 mph - N/A   Clear
8:55 PM 65.3 °F 62.8 °F 92% 29.79 in 10.0 mi WNW 4.6 mph - N/A   Clear
9:15 PM 64.6 °F 62.6 °F 93% 29.80 in 10.0 mi WNW 4.6 mph - N/A   Scattered Clouds
9:16 PM 64.6 °F 62.6 °F 93% 29.80 in 10.0 mi WNW 4.6 mph - N/A   Scattered Clouds
9:35 PM 64.8 °F 62.6 °F 93% 29.81 in 10.0 mi WNW 3.5 mph - N/A   Clear
9:40 PM 64.6 °F 62.6 °F 93% 29.81 in 10.0 mi WNW 3.5 mph - N/A   Clear
9:57 PM 63.9 °F 62.1 °F 94% 29.82 in 10.0 mi WNW 4.6 mph - N/A   Clear
10:15 PM 62.8 °F 61.3 °F 95% 29.82 in 10.0 mi NW 3.5 mph - N/A   Scattered Clouds
10:16 PM 62.8 °F 61.3 °F 95% 29.82 in 10.0 mi NNW 3.5 mph - N/A   Scattered Clouds
10:35 PM 61.7 °F 60.3 °F 95% 29.82 in 3.0 mi NNE 4.6 mph - N/A   Scattered Clouds
10:36 PM 61.7 °F 60.3 °F 95% 29.83 in 3.0 mi North 3.5 mph - N/A   Scattered Clouds
10:58 PM 60.8 °F 59.7 °F 96% 29.84 in 7.0 mi Calm Calm - N/A   Mostly Cloudy
11:15 PM 60.8 °F 59.5 °F 96% 29.85 in 10.0 mi NNW 3.5 mph - N/A   Mostly Cloudy
11:35 PM 61.2 °F 60.1 °F 96% 29.87 in 10.0 mi NW 3.5 mph - N/A   Mostly Cloudy
11:59 PM 62.1 °F 60.3 °F 94% 29.87 in 10.0 mi WNW 4.6 mph - N/A   Mostly Cloudy